Skip to content

GuitarMania

2007.09.04 01:43

줄리아니 기타협주곡

(*.175.45.106) 조회 수 20455 댓글 5
저희 대구가톨릭대학교의과대학 소리현에서
9월 8일날 대덕문화전당에 연주회에서 마지막
하일라이트로 줄리아니 기타 협주곡을 올립니다.

솔리스트는 저희 지도쌤이신 이봉주 선생님이 해주시고요(처음에 들리는 목소리의 주인공이십니다)
얼마전 산 마이크가 정말 요긴하게 잘쓰이네요 ㅋ
일주인만에 다들모여서 연습했는데 오늘따라 유난히 잘 맞는거같네요
마지막 피날레는 직접 오셔서 들으라고 중간에 잘랐습니다
공연이 끝나면 끝까지 올려보도록 하지요^^ 귀찮음과 까먹음을 뺀다면 말이죠..
이 곡을 듣고 베토벤이 기타는 작은 오케스트라다 라는 말 한마디가 우리 합주단에 동기를 부여해주는군요 ㅋ

줄리아니 기타협주곡 해설 첨부합니다
관심있으시면 그날 연주회에 와주세요
시간은 오후 6시반 일겁니다ㅋ

______________________________________________________________________________________________

줄리아니 기타협주곡 해설.

마우로 줄리아니는 모렛티, 카룰리, 카르카시 등 이탈리아 악파 중 가장 유명했던 거장입니다. 1781년 이태리 바리에서 태어난 마우로 줄리아니는 처음에는 첼로로 악기 공부를 시작했지만, 기타의 아름다운
음색과 화음에 끌려 곧 기타에 흥미를 가지게 되었다고 합니다. 독학으로 배웠지만, 단시일내 당대의 가장 탁월한 기타리스트가 될 정도로 기타라는 악기를 완벽하게 마스터하였습니다. 당시 이태리에서는 오페라가 성행했기 때문에 그의 재능을 보여줄 기회가 거의 없어, 유럽으로 연주여행을 다녔으며, 결국에는 음악의 중심부인 비엔나에 정착하기로 결심하였습니다. 거기서 그는 연주자와 작곡자로써 재능을 인정받게되었습니다. 줄리아니는 평생 200여곡 이상을 작곡하였으며, 대부분이 기타를 위한 곡으로. 기타 독주곡, 기타 실내악곡, 그리고 3개의 협주곡 등이 있습니다.

이번 저희 소리현 15주년 기념연주회에서 들으실 곡은 바로 3개의 협주곡 중 1번으로서,
1808년 4월 3일 빈의 레두덴살 아카데미에서 줄리아니의 연주로 직접 초연되었습니다. 이 연주장에는 청중의 한 사람으로 베토벤이 있었는데, 악성 역시 줄리아니 기타에 도취되어 열광했고 또 "기타는 그 자체가 작은 오케스트라이다"라고 극찬했다는 유명한 일화가 있습니다.

이 음악은 한때 KBS 1FM 라디오의 아침프로그램인 'FM 가정음악'의 시그널 뮤직으로 사용되었던 곡으로 클래식을 좋아하시는 분들은 매일 들으시는 친숙한 곡입니다. 그러나, 방송을 통해서는 항상 극히 일부분만 들을 수 있기 때문에 이 음악의 진정한 아름다움이 간과되고 있는 것에 대한 아쉬움이 커서 오늘 이 아름다운 기타협주곡 전부를 감상하실 수 있도록 준비하였습니다. 10년이라는 적지 않은 시간동안 소리현을 이끌어주신 기타리스트 이봉주 선생님과 소리현 합주단원들의 하모니 속에서, 단지 방송 시그널 음악이 아닌 온전한 기타 협주곡으로서의 이 곡의 매력을 느끼시길 바랍니다.  
Comment '5'
  • 콩쥐 2007.09.04 20:03 (*.80.23.13)
    안들려요. 클릭하니 입력미디어형식이 잘못되었다고 나오는데요.
  • buyho 2007.09.04 21:06 (*.150.1.239)
    음...지금 딴 컴퓨터로 하는데도 나오는데요 ㅋ 다른분들도 안들리시나??
  • 지천 2007.09.04 23:25 (*.184.254.8)
    네 저도 안들리네요. 콩쥐님과 같은 오류 떠요^^
  • barrios 2007.09.05 17:31 (*.178.101.34)
    잘 들리는데...?? 윈도우 미디어 플레이어로 듣습니다
  • buyho 2007.09.06 00:22 (*.175.45.106)
    음.. 바리오스님처럼 윈도우 미디어로는 돼던데요 ㅋ
    저는 간편해서 곰오디오를 쓰는데;;안되시는 분은..프로그램 문제인걸까요...
?

List of Articles
번호 제목 글쓴이 날짜 조회 수
1836 Love Affair 6 2007.06.02 19027
1835 zapateado///rodrigo 13 김은미 2007.06.03 23934
1834 최후의 트레몰로 (리버브효과없는겁니다..;;) 4 file JoDaC 2007.06.09 19127
1833 최후의 트레몰로 입니다 ^^ 32 file JoDaC 2007.06.06 23324
1832 전설 11 file 최병욱 2007.06.06 23245
1831 I believe 13 file orpheus15 2007.06.08 19167
1830 Romance.3번. 10 file 우체국가는길 2007.06.08 23800
1829 Kiss the Rain 이루마 곡 (기타 연주) 44 file 아이모레스 2007.06.12 26594
1828 오 솔레미오 4 file 밀롱가. 2007.06.14 21076
1827 Recuerdos de la Alhambra -F. Tarrega 12 file Jason 2007.06.15 23483
1826 알함브라 다시녹음했습니다~ 14 file 최병욱 2007.06.16 21551
1825 [re] 소르 연습곡 6번-리버브를 넣어보았습니다. 1 file niceplace 2007.06.20 21622
1824 소르 연습곡 6번 8 file niceplace 2007.06.17 21706
1823 Romance.3번. 다시 올려요 6 file 우체국가는길 2007.06.17 25605
1822 뱃노래 - 코스트 12 file fernando 2007.06.19 22286
1821 유키구라모토의 Meditation 18 file 최병욱 2007.06.19 23580
1820 fredric hand의 연습곡 1번 4 file 루하기 2007.06.21 15643
1819 리브라소나티네 3.Fuoco-롤랑디용 27 file MSGr 2007.06.21 28235
1818 바흐 샤콘느 10 file 좁은길로 2007.06.26 23023
1817 쉘부르의 우산 3 file nice guy 2007.06.27 22387
1816 Koyunbaba - C. Domeniconi 25 file 진느 2007.06.27 19697
1815 F. Tarrega,Capricho Arabe 33 file Jason 2007.06.28 22559
1814 Agua e Vinho - Egberto Gismonti 18 file limnz 2007.06.29 21880
1813 BWV1006a 프렐류드 3 file 좁은길로 2007.06.29 21628
1812 이노래어떤가요? Pulo do Gato(P.Bellinati) 15 file MSGr 2007.07.01 26293
1811 L'HYMNE A L'AMOUR / E.PIAF 24 file April 2007.07.04 20752
1810 Kleine Romanze- L. Walker 10 file Jason 2007.07.05 20414
1809 Triste Santuario by Vincent Gomez-슬픈 예배당 17 file Jason 2007.07.05 24281
1808 대성당1악장 8 file 좁은길로 2007.07.05 19963
1807 이루마의 When the love falls 7 file 최병욱 2007.07.07 43314
1806 종소리 12 file 좁은길로 2007.07.07 23273
1805 소르의 마적입니다... 19 file 화가 2007.07.08 27587
1804 brahms-theme and variations 20 file 기타레타 2007.07.09 29541
1803 [영상] 엘레지 Elegie (메르츠 Mertz) 3 2007.07.09 22483
1802 이병우 - 달려 18 file 김상욱 2007.07.09 21843
1801 대성당2악장 4 file 좁은길로 2007.07.09 31209
1800 도적의 노래-ibach 연주 16 file 바하의꿈 2007.07.10 22759
1799 하프시 팟사 완주--! 4 file 좁은길로 2007.07.10 21046
1798 핑거스타일- Sun dance (Kotaro Oshio) 7 file 최병욱 2007.07.11 24914
1797 Giuliani-- Rossiniana No.1 (글로빌 아트홀 실황연주) 15 file LDH 2007.07.11 18515
1796 엔커리지먼트-소르 39 file 기타레타 2007.07.11 22634
1795 이 곡 제목이 뭔가요? 3 file -_ - 2007.07.12 18920
1794 헨델의 아리아 23 file 아이모레스 2007.07.12 22545
1793 G선상의 아리아 - J.S.BACH 43 file 기타레타 2007.07.13 23228
1792 이루마의 Kiss the Rain 6 file 최병욱 2007.07.13 22944
1791 Pierre Bensusan - 아도니스의 정원 12 file 찬찬 2007.07.14 24127
1790 Bach - BWV1007 Prelude & Allemande 16 file 김상욱 2007.07.14 21975
1789 Wonderful tonight 43 file - 情 - 2007.07.14 25048
1788 Variation on Theme of Mozart - F.Sor 32 file Jason 2007.07.15 22978
1787 월량대표아적심(月亮代表我的心) 29 이진성 2007.07.19 25191
1786 Fantasia Arabe by Sabicas 22 file Jason 2007.07.22 18845
1785 샤콘느 뒤에뒤부분 7 file 좁은길로 2007.07.23 19567
1784 유키 구라모토의 Lake Louise(새로운 편곡) 17 file 최병욱 2007.07.23 22764
1783 Aria no.1 - F. Kleynjans 11 file bradpitt 2007.07.24 22662
1782 Septiembre (Maximo Diego Pujol) 21 file 라일 2007.07.26 21361
1781 (이중주) Green Sleeves 20 file niceplace 2007.07.27 24157
1780 BWV1006a Prelude 7 file 좁은길로 2007.07.27 25025
1779 A. Piazzolla Quattro Stagioni (부에노스아이레스의 사계) 1. Primavera portend (봄) 8 file sgq 2007.07.27 22583
1778 A. Piazzolla Oblivion(망각) 3 file sgq 2007.07.27 22379
1777 A. Piazzolla Liebertango 1 file sgq 2007.07.27 23299
1776 P. Bellinati Baiao de Gude 서울기타콰르텟 4 file sgq 2007.07.27 23201
1775 사람이 꽃보다 아름다워~~~ 4 야매 2007.07.28 23274
1774 Fur Elise by L. Van Beethoven 62 file Jason 2007.07.28 26610
1773 부탁 김효석 2007.07.29 18582
1772 클레이앙스-로망스1번(이중주) 6 file 기타레타 2007.07.30 19103
1771 Lamento No.2 / F. Kleynjans 12 file 이진성 2007.08.01 20515
1770 The old rugged cross by G. Bennard 10 file Jason 2007.08.02 21952
1769 로망스 no.1(이중주)-끌레앙 16 file 체르니 2007.08.04 31725
1768 Sleeprs, Awake! 눈뜨라부르는소리있어 7 file 좁은길로 2007.08.05 19983
1767 Estudio No.12 / F. Sor 13 file 이진성 2007.08.06 22448
1766 Partners in Praise / 안신영님 편곡 10 file orpheus15 2007.08.07 19506
1765 알베니즈-야자나무 아래에서 13 file 기타레타 2007.08.08 28551
1764 로드리고 // 고풍스런 티엔토 30 file 진느 2007.08.08 25129
1763 Sor Etude#6 10 file 밀롱가. 2007.08.10 20317
1762 Classical Gas/Mason Williams -클래식컬 개스 23 file Jason 2007.08.10 22666
1761 Adelita 2 file sky600 2007.08.12 14774
1760 maria luisa 6 file sky600 2007.08.12 23553
1759 sunflower 14 file 한사랑 2007.08.13 21039
1758 Tango En Skai 11 file 좁은길로 2007.08.13 23899
1757 바흐 // Choral from cantata147 arr.David Russell 31 file 진느 2007.08.14 20409
1756 milonga 6 file 2007.08.15 21592
1755 [동영상] Barrios - Una Limosna por el amor de Dios (최후의 트레몰로) 39 file 김상욱 2007.08.17 27480
1754 텅 빈 놀이터 II by devilous 9 file devilous 2007.08.20 20189
1753 Sleepers, Awake! from Cantata BWV140 9 file April 2007.08.20 20063
1752 Yuichi Watanabe - Morning Dew 5 file 2007.08.21 23175
1751 Falla--ThreeCorneredHat(KimMoonHyung & Chung Sehee) 7 file 바하의꿈 2007.08.21 24656
1750 망고레의 Contemplacion (깊은 그리움) 24 file 아이모레스 2007.08.22 21953
1749 헨델의 대장간변주?^^ Handel--Blacksmith Variations 19 file 바하의꿈 2007.08.23 23599
1748 F. Sor의 인커리지먼트 18 file 바하의꿈 2007.08.24 24669
1747 알함브라궁전의 추억 12 file 정면 2007.08.24 21384
1746 죄송한! 탕고 안 스까이 바이 로랑디앙 (조율 맞춰 재업)ㅠ 8 file buyho 2007.08.26 16664
1745 Stairway to Heaven, Classical/Unplugged version 기악 독주 7 file 2007.08.28 25141
1744 Les Feuilles Mortes (고엽) - Joseph Kosma 20 file 고정석 2007.08.29 21353
1743 Beautiful Dreamer(토스토) 7 file 까치 2007.08.30 23051
» 줄리아니 기타협주곡 5 file buyho 2007.09.04 20455
1741 가을편지 / 안형수 편곡 15 file orpheus15 2007.09.04 22599
1740 녹음은 어떻게 하나요? 2 소르초이 2007.09.05 19581
1739 TOmmy Emmanuel-Angelina 10 file 좁은길로 2007.09.05 19020
1738 내마음의 보석상자(동영상) 7 야매 2007.09.07 24346
1737 Venus(동영상) 4 야매 2007.09.07 27031
Board Pagination ‹ Prev 1 ... 11 12 13 14 15 16 17 18 19 20 21 22 23 24 25 26 27 28 29 30 ... 39 Next ›
/ 39

나눔글꼴 설치 안내


이 PC에는 나눔글꼴이 설치되어 있지 않습니다.

이 사이트를 나눔글꼴로 보기 위해서는
나눔글꼴을 설치해야 합니다.

설치 취소

Designed by sketchbooks.co.kr / sketchbook5 board skin

Sketchbook5, 스케치북5

Sketchbook5, 스케치북5

Sketchbook5, 스케치북5

Sketchbook5, 스케치북5

Powered by Xpress Engine / Designed by hikaru100

abcXYZ, 세종대왕,1234

abcXYZ, 세종대왕,1234